Location: Terra Rouge Observatory
(46.0000°N, 62.7500°W)
Time: 03:38:56
(UTC-04:00)

Daily predictions for brighter satellites

Satellite Brightness Start Highest point End
(mag) Time Altitude Azimuth Time Altitude Azimuth Time Altitude Azimuth
ADEOS Rocket 4.3 02:50:52 10° NNE 02:54:54 37° NE 02:54:54 37° NE
Resurs 1-4 Rocket 4.5 03:02:33 10° N 03:03:40 17° N 03:03:40 17° N
CZ-2D R/B 4.3 03:13:57 10° N 03:15:22 19° N 03:15:22 19° N
Cosmos 2369 Rocket 3.3 03:44:45 37° N 03:44:45 37° N 03:48:12 10° NNE
Cosmos 2219 4.4 03:37:33 10° NNW 03:42:53 39° NE 03:48:09 10° ESE
MOS 1 Rocket 4.3 03:44:29 10° NNE 03:48:42 52° NE 03:48:42 52° NE
Cosmos 1452 Rocket 4.5 03:52:49 41° ESE 03:53:16 42° ESE 03:58:14 10° NE
ATLAS 5 CENTAUR R/B 2.6 04:09:56 46° N 04:09:56 46° N 04:13:56 10° NE
Cosmos 1140 Rocket 3.8 04:05:27 10° NNW 04:10:40 65° ENE 04:15:53 10° SSE
ERS-2 3.9 04:08:32 10° NNE 04:11:03 32° ENE 04:11:03 32° ENE
Cosmos 1943 Rocket 2.2 04:15:08 65° NNW 04:15:08 65° NNW 04:20:06 10° NNE
CZ-4C R/B 2.5 04:15:30 51° SSE 04:16:28 58° ESE 04:22:21 10° NE
IRAS Rocket 4.1 04:11:16 10° NNE 04:16:47 87° ESE 04:17:16 75° S
ADEOS II 2.1 04:14:58 10° NNE 04:20:17 80° ESE 04:21:07 63° S
Lacrosse 5 2.0 04:25:31 61° NNW 04:25:31 61° NNW 04:30:17 10° NE
Okean O Rocket 2.7 04:23:56 10° N 04:26:29 33° N 04:26:29 33° N
CZ-4B R/B 3.1 04:29:44 10° NNE 04:35:22 75° WNW 04:36:54 49° SW
Okean 1-7 3.2 04:37:36 38° SSE 04:39:06 67° E 04:43:21 10° NNE
ADEOS Rocket 4.2 04:37:03 10° N 04:41:52 26° NW 04:41:52 26° NW
ATLAS CENTAUR R/B 4.4 04:42:29 31° SW 04:42:37 31° SW 04:54:30 10° S
Resurs 1-4 Rocket 4.4 04:44:36 10° NNW 04:44:46 10° NNW 04:44:46 10° NNW
Cosmos 2221 Rocket 3.5 04:47:14 44° SSW 04:48:38 82° W 04:53:14 10° N
Meteor 1-20 Rocket 4.4 04:43:20 10° N 04:49:04 75° E 04:54:38 10° SSE
PSLV R/B 3.9 04:47:48 10° N 04:51:16 46° NW 04:51:16 46° NW
Cosmos 1850 Rocket 3.9 04:46:56 10° NNW 04:52:19 89° WSW 04:57:37 10° SSE
USA 234 3.6 04:49:33 10° ENE 04:56:02 61° SE 05:01:04 17° SSW
Cosmos 1782 Rocket 3.8 04:59:43 10° NNW 05:04:00 46° W 05:08:13 10° SSW
Lacrosse 5 rocket 1.1 05:04:31 41° NW 05:05:37 71° NE 05:09:12 10° ESE
Cosmos 1420 Rocket 3.9 05:03:34 23° SSW 05:06:51 75° WNW 05:12:04 10° NNE
Cosmos 2297 Rocket 3.3 05:02:17 10° NNW 05:07:43 45° ENE 05:13:06 10° SE
Cosmos 1606 3.5 05:04:37 10° S 05:08:24 54° E 05:12:14 10° NNE
Cosmos 1745 Rocket 3.8 05:05:54 10° NNW 05:12:03 76° W 05:18:09 10° S
Cosmos 1656 Rocket 3.8 05:10:09 28° WSW 05:12:57 54° WNW 05:18:31 10° NNE
GEOS 3 Rocket 3.9 05:08:44 10° SSE 05:13:31 42° WSW 05:16:01 25° WNW
Abrixas 2.7 05:14:22 50° NNW 05:14:39 53° N 05:17:29 10° E
Cosmos 1417 Rocket 4.5 05:08:48 10° SSW 05:14:50 57° WNW 05:20:54 10° N
CZ-4B R/B 3.8 05:12:53 10° N 05:16:53 67° WNW 05:21:04 10° SSW
ATLAS 3B R/B 3.2 05:09:26 10° SSW 05:16:56 68° ESE 05:24:09 10° NE
NOAA 6 4.2 05:11:53 10° NNE 05:17:04 76° ESE 05:22:12 10° S
SKYMED 2 3.6 05:16:10 10° SSE 05:20:31 84° ENE 05:24:53 10° NNW
Meteor PRIRODA 4.2 05:18:41 10° N 05:22:05 36° WNW 05:22:32 34° W
Cosmos 1782 2.7 05:21:19 10° SSW 05:25:16 72° W 05:29:16 10° N
SL-24 R/B - RUBIN 2 4.4 05:20:08 10° NW 05:26:24 75° NE 05:31:55 10° SE
Meteor 2-6 Rocket 4.2 05:21:35 10° S 05:26:58 81° E 05:32:26 10° NNE
Cosmos 2219 3.7 05:21:51 10° NW 05:26:59 36° WSW 05:32:05 10° S
Cosmos 2369 Rocket 3.9 05:26:33 14° NW 05:27:43 15° NW 05:30:53 10° N
Cosmos 2227 Rocket 2.3 05:22:44 10° NNW 05:28:27 80° ENE 05:34:08 10° SSE
Cosmos 1633 2.9 05:24:54 10° N 05:28:32 65° E 05:32:06 10° SSE
Cosmos 1674 Rocket 4.3 05:25:00 10° S 05:29:19 58° E 05:33:42 10° NNE
Okean-O 2.8 05:25:34 10° N 05:29:50 48° WNW 05:34:06 10° SW
Meteor 2-10 Rocket 4.2 05:31:12 21° WSW 05:33:24 30° WNW 05:37:55 10° N
Cosmos 1452 Rocket 4.4 05:33:11 21° W 05:35:32 30° WNW 05:40:10 10° N
Cosmos 1607 3.9 05:30:32 10° SSW 05:36:40 88° SE 05:42:53 10° NE
Okean 2 Rocket 3.9 05:34:31 10° NNW 05:38:14 27° W 05:41:57 10° SSW
Thor Agena Rocket 4.0 05:33:57 10° SSW 05:38:48 39° W 05:43:36 10° NNW
Cosmos 1110 Rocket 4.4 05:33:56 10° S 05:39:02 67° ESE 05:44:12 10° NNE
Meteor 1-31 Rocket 3.4 05:35:30 10° N 05:39:02 34° WNW 05:41:55 14° SW
Tiangong 1 1.6 05:40:32 25° WSW 05:41:49 41° S 05:44:36 10° ESE
ERS-2 3.7 05:42:58 10° NNW 05:45:30 18° WNW 05:45:50 17° WNW
Okean 1 Rocket 3.3 05:45:11 10° N 05:49:37 73° E 05:53:58 10° SSE
ATLAS 5 CENTAUR R/B 3.7 05:51:29 11° WNW 05:54:36 18° NNW 05:58:18 10° NNE
Cosmos 2151 Rocket 4.2 05:54:19 10° NNW 05:58:25 35° W 06:02:28 10° SSW
Cosmos 1943 Rocket 3.9 05:56:40 12° WNW 05:59:20 15° NW 06:02:36 10° N
ADEOS II 3.6 05:56:06 10° NNW 05:59:21 17° WNW 06:02:05 12° W
Cosmos 1697 Rocket 4.3 05:54:56 10° S 06:00:08 39° ESE 06:05:22 10° NE
Meteor 1-11 Rocket 3.8 05:58:59 10° NNW 06:04:53 64° W 06:10:40 10° S
CZ-4C R/B 3.1 06:00:42 12° W 06:05:22 34° NW 06:11:03 10° NNE
BREEZE M DEB (TANK) 3.7 05:56:57 11° W 06:08:26 64° N 06:12:11 10° E
COSMO-SKYMED 1 3.3 06:04:52 10° SSW 06:08:44 31° W 06:12:36 10° NNW
Lacrosse 5 3.2 06:04:46 10° WNW 06:09:02 26° NNW 06:13:19 10° NE
Radarsat Rocket 4.4 06:02:19 10° NNE 06:09:28 61° WNW 06:15:44 10° SW
Meteor 1-28 Rocket 4.0 06:12:59 10° SSW 06:16:17 29° W 06:19:37 10° NNW
CSL-04 Rocket 3.7 06:14:57 10° NNE 06:20:23 81° WNW 06:25:50 10° SSW
CZ-4 R/B 2.2 06:17:00 10° NNE 06:21:07 60° E 06:25:09 10° S
PAYLOAD A 3.9 06:17:33 10° NNE 06:22:19 83° WNW 06:27:12 10° SSW
